Location: Burbank
(38.7788°N, 114.0429°W)
Time: 02:43:56
(UTC+00:00)

Tiros 1 despin weight - Pass Details

Date: 15 May 2026
Orbit: 554 x 591 km, 48.2° (Epoch: 6 June)

Event Time Altitude Azimuth Distance (km) Brightness Sun altitude
Rises 15:20:05 0° 292° (WNW) 2,742 ? 32.5°
Reaches altitude 10° 15:22:45 10° 308° (NW) 1,842 ? 33.0°
Maximum altitude 15:26:04 22° 360° (N) 1,238 ? 33.6°
Drops below altitude 10° 15:29:22 10° 52° (NE) 1,834 ? 34.3°
Sets 15:32:01 0° 68° (ENE) 2,728 ? 34.8°
